| time (UTC) | temp C | wind direction | speed KPH | gust KPH | rain 1hr cm | rain 24hr cm | rain mn cm | humidity % | barometer mb |
| 20260507023937 | 11 | 224 | 0.0 | 0.0 | 0.00 | 1.50 | 1.50 | 75 | 1015.1 |
| 20260507023434 | 11 | 224 | 0.0 | 0.0 | 0.00 | 1.50 | 1.50 | 75 | 1015.4 |
| 20260507022931 | 11 | 224 | 0.0 | 0.0 | 0.00 | 1.50 | 1.50 | 76 | 1015.3 |
| 20260507022429 | 11 | 224 | 0.0 | 0.0 | 0.00 | 1.50 | 1.50 | 73 | 1015.1 |
| 20260507021924 | 11 | 224 | 0.0 | 0.0 | 0.00 | 1.50 | 1.50 | 70 | 1014.9 |
| 20260507021419 | 11 | 224 | 0.0 | 0.0 | 0.00 | 1.50 | 1.50 | 72 | 1015.1 |
| 20260507020918 | 11 | 224 | 0.0 | 0.0 | 0.00 | 1.50 | 1.50 | 69 | 1014.9 |
| 20260507020414 | 11 | 263 | 1.6 | 4.8 | 0.00 | 1.50 | 1.50 | 64 | 1014.7 |
| 20260507015911 | 12 | 223 | 0.0 | 0.0 | 0.00 | 1.50 | 1.50 | 68 | 1014.4 |
| 20260507015409 | 12 | 221 | 0.0 | 0.0 | 0.00 | 1.50 | 1.50 | 67 | 1014.7 |
| 20260507014906 | 12 | 220 | 0.0 | 0.0 | 0.00 | 1.50 | 1.50 | 58 | 1014.5 |
| 20260507014402 | 12 | 212 | 0.0 | 0.0 | 0.00 | 1.50 | 1.50 | 61 | 1014.4 |
| 20260507013859 | 12 | 250 | 3.2 | 3.2 | 0.00 | 1.50 | 1.50 | 58 | 1014.3 |
| 20260507013356 | 12 | 202 | 1.6 | 1.6 | 0.00 | 1.50 | 1.50 | 58 | 1014.4 |
| 20260507012853 | 12 | 19 | 3.2 | 4.8 | 0.00 | 1.50 | 1.50 | 57 | 1014.4 |
| 20260507012349 | 12 | 227 | 1.6 | 1.6 | 0.00 | 1.50 | 1.50 | 58 | 1014.3 |
| 20260507011847 | 12 | 247 | 1.6 | 3.2 | 0.00 | 1.50 | 1.50 | 58 | 1014.3 |
| 20260507011344 | 12 | 218 | 3.2 | 3.2 | 0.00 | 1.50 | 1.50 | 59 | 1014.3 |
| 20260507010843 | 12 | 296 | 3.2 | 3.2 | 0.00 | 1.50 | 1.50 | 60 | 1014.0 |
| 20260507010339 | 12 | 222 | 1.6 | 1.6 | 0.00 | 1.50 | 1.50 | 61 | 1014.3 |
| 20260507005836 | 12 | 231 | 1.6 | 3.2 | 0.00 | 1.50 | 1.50 | 62 | 1014.1 |
| 20260507005333 | 12 | 209 | 0.0 | 1.6 | 0.00 | 1.50 | 1.50 | 62 | 1013.9 |
| 20260507004830 | 12 | 213 | 0.0 | 0.0 | 0.00 | 1.50 | 1.50 | 63 | 1013.7 |
| 20260507004327 | 12 | 222 | 0.0 | 0.0 | 0.00 | 1.50 | 1.50 | 71 | 1013.7 |
| 20260507003824 | 12 | 222 | 0.0 | 0.0 | 0.00 | 1.50 | 1.50 | 68 | 1013.5 |
| 20260507003319 | 12 | 222 | 0.0 | 0.0 | 0.00 | 1.50 | 1.50 | 67 | 1013.6 |
| 20260507002814 | 13 | 222 | 0.0 | 0.0 | 0.00 | 1.50 | 1.50 | 63 | 1013.3 |
| 20260507002311 | 13 | 232 | 1.6 | 1.6 | 0.00 | 1.50 | 1.50 | 59 | 1013.1 |
| 20260507001809 | 13 | 221 | 3.2 | 3.2 | 0.00 | 1.50 | 1.50 | 59 | 1013.1 |
| 20260507001306 | 13 | 111 | 3.2 | 3.2 | 0.00 | 1.50 | 1.50 | 58 | 1013.1 |
| 20260507000802 | 13 | 336 | 6.4 | 6.4 | 0.00 | 1.50 | 1.50 | 58 | 1013.2 |
| 20260507000259 | 13 | 235 | 1.6 | 1.6 | 0.00 | 1.50 | 1.50 | 58 | 1013.1 |
| 20260506235754 | 13 | 219 | 0.0 | 1.6 | 0.00 | 1.50 | 1.50 | 61 | 1012.9 |
| 20260506235250 | 13 | 230 | 1.6 | 1.6 | 0.00 | 1.50 | 1.50 | 61 | 1013.0 |
| 20260506234747 | 13 | 224 | 1.6 | 1.6 | 0.00 | 1.50 | 1.50 | 68 | 1013.0 |
| 20260506234244 | 13 | 233 | 3.2 | 4.8 | 0.00 | 1.50 | 1.50 | 64 | 1012.9 |
| 20260506233742 | 13 | 221 | 0.0 | 0.0 | 0.00 | 1.50 | 1.50 | 68 | 1012.8 |
| 20260506233238 | 13 | 221 | 0.0 | 0.0 | 0.00 | 1.50 | 1.50 | 69 | 1012.7 |
| 20260506232730 | 13 | 229 | 0.0 | 1.6 | 0.00 | 1.50 | 1.50 | 62 | 1012.9 |
| 20260506232230 | 13 | 225 | 0.0 | 0.0 | 0.00 | 1.50 | 1.50 | 70 | 1012.8 |
| 20260506231727 | 13 | 227 | 0.0 | 0.0 | 0.00 | 1.50 | 1.50 | 69 | 1012.8 |
| 20260506231225 | 13 | 227 | 0.0 | 0.0 | 0.00 | 1.50 | 1.50 | 67 | 1013.0 |
| 20260506230722 | 13 | 227 | 0.0 | 0.0 | 0.00 | 1.50 | 1.50 | 65 | 1013.2 |
| 20260506230219 | 14 | 223 | 0.0 | 0.0 | 0.00 | 1.50 | 1.50 | 74 | 1013.0 |
| 20260506225715 | 14 | 223 | 0.0 | 0.0 | 0.00 | 1.50 | 1.50 | 68 | 1013.3 |
| 20260506225212 | 15 | 223 | 0.0 | 0.0 | 0.00 | 1.50 | 1.50 | 66 | 1013.1 |
| 20260506224709 | 14 | 201 | 3.2 | 3.2 | 0.00 | 1.50 | 1.50 | 58 | 1013.1 |
| 20260506224206 | 15 | 224 | 0.0 | 0.0 | 0.00 | 1.50 | 1.50 | 61 | 1013.3 |
| 20260506223702 | 15 | 215 | 0.0 | 1.6 | 0.00 | 1.50 | 1.50 | 57 | 1013.1 |
| 20260506223158 | 15 | 245 | 4.8 | 4.8 | 0.00 | 1.50 | 1.50 | 52 | 1013.2 |
| 20260506222655 | 15 | 231 | 1.6 | 1.6 | 0.00 | 1.50 | 1.50 | 54 | 1013.0 |
| 20260506222150 | 15 | 224 | 1.6 | 1.6 | 0.00 | 1.50 | 1.50 | 53 | 1013.2 |
| 20260506221649 | 15 | 258 | 3.2 | 3.2 | 0.00 | 1.50 | 1.50 | 52 | 1013.0 |
| 20260506221147 | 15 | 269 | 4.8 | 4.8 | 0.00 | 1.50 | 1.50 | 51 | 1012.8 |
| 20260506220643 | 15 | 312 | 4.8 | 6.4 | 0.00 | 1.50 | 1.50 | 49 | 1012.8 |
| 20260506220138 | 16 | 307 | 4.8 | 4.8 | 0.00 | 1.50 | 1.50 | 51 | 1012.6 |
| 20260506215635 | 15 | 219 | 0.0 | 1.6 | 0.00 | 1.50 | 1.50 | 52 | 1012.7 |
| 20260506215130 | 16 | 223 | 3.2 | 3.2 | 0.00 | 1.50 | 1.50 | 52 | 1012.8 |
| 20260506214628 | 16 | 214 | 3.2 | 4.8 | 0.00 | 1.50 | 1.50 | 49 | 1012.5 |
| 20260506214125 | 16 | 247 | 4.8 | 6.4 | 0.00 | 1.50 | 1.50 | 49 | 1012.4 |
| 20260506213623 | 16 | 233 | 0.0 | 0.0 | 0.00 | 1.50 | 1.50 | 56 | 1012.1 |
| 20260506213120 | 16 | 248 | 3.2 | 3.2 | 0.00 | 1.50 | 1.50 | 49 | 1012.1 |
| 20260506212617 | 16 | 260 | 4.8 | 4.8 | 0.00 | 1.50 | 1.50 | 49 | 1012.0 |
| 20260506212112 | 16 | 265 | 4.8 | 6.4 | 0.00 | 1.50 | 1.50 | 48 | 1012.3 |
| 20260506211608 | 16 | 0 | 6.4 | 6.4 | 0.00 | 1.50 | 1.50 | 51 | 1012.2 |
| 20260506211105 | 16 | 238 | 0.0 | 1.6 | 0.00 | 1.50 | 1.50 | 50 | 1012.3 |
| 20260506210602 | 16 | 348 | 9.7 | 11.3 | 0.00 | 1.50 | 1.50 | 47 | 1012.2 |
| 20260506210058 | 16 | 252 | 3.2 | 3.2 | 0.00 | 1.50 | 1.50 | 50 | 1012.2 |
| 20260506205555 | 16 | 303 | 4.8 | 9.7 | 0.00 | 1.50 | 1.50 | 51 | 1012.1 |
| 20260506205050 | 16 | 293 | 3.2 | 3.2 | 0.00 | 1.50 | 1.50 | 50 | 1012.3 |
| 20260506204549 | 17 | 226 | 1.6 | 3.2 | 0.00 | 1.50 | 1.50 | 50 | 1012.4 |
| 20260506204045 | 17 | 211 | 1.6 | 1.6 | 0.00 | 1.50 | 1.50 | 53 | 1012.3 |
| 20260506203544 | 17 | 229 | 0.0 | 1.6 | 0.00 | 1.50 | 1.50 | 48 | 1012.1 |
| 20260506203040 | 17 | 246 | 1.6 | 3.2 | 0.00 | 1.50 | 1.50 | 51 | 1012.0 |
| 20260506202537 | 18 | 350 | 8.0 | 11.3 | 0.00 | 1.50 | 1.50 | 47 | 1012.0 |
| 20260506202033 | 18 | 243 | 0.0 | 1.6 | 0.00 | 1.50 | 1.50 | 49 | 1011.9 |
| 20260506201532 | 18 | 327 | 6.4 | 11.3 | 0.00 | 1.50 | 1.50 | 48 | 1012.1 |
| 20260506201028 | 18 | 322 | 8.0 | 9.7 | 0.00 | 1.50 | 1.50 | 47 | 1012.1 |
| 20260506200524 | 17 | 222 | 1.6 | 3.2 | 0.00 | 1.50 | 1.50 | 52 | 1011.9 |
| 20260506200021 | 17 | 306 | 4.8 | 6.4 | 0.00 | 1.50 | 1.50 | 56 | 1011.8 |
| 20260506195518 | 16 | 227 | 4.8 | 9.7 | 0.00 | 1.50 | 1.50 | 53 | 1011.7 |
| 20260506195014 | 16 | 186 | 1.6 | 1.6 | 0.00 | 1.50 | 1.50 | 54 | 1011.7 |
| 20260506194512 | 17 | 248 | 3.2 | 3.2 | 0.00 | 1.50 | 1.50 | 54 | 1011.8 |
| 20260506194008 | 16 | 222 | 3.2 | 3.2 | 0.00 | 1.50 | 1.50 | 56 | 1011.8 |
| 20260506193506 | 17 | 232 | 3.2 | 4.8 | 0.00 | 1.50 | 1.50 | 56 | 1011.7 |
| 20260506193002 | 16 | 244 | 4.8 | 4.8 | 0.00 | 1.50 | 1.50 | 55 | 1011.9 |
| 20260506192459 | 16 | 189 | 3.2 | 4.8 | 0.00 | 1.50 | 1.50 | 56 | 1011.9 |
| 20260506191955 | 16 | 271 | 3.2 | 4.8 | 0.00 | 1.50 | 1.50 | 56 | 1012.0 |
| 20260506191452 | 16 | 259 | 3.2 | 4.8 | 0.00 | 1.50 | 1.50 | 57 | 1011.9 |
| 20260506190948 | 16 | 276 | 0.0 | 1.6 | 0.00 | 1.50 | 1.50 | 58 | 1012.1 |
| 20260506190445 | 16 | 325 | 9.7 | 14.5 | 0.00 | 1.50 | 1.50 | 57 | 1012.1 |
| 20260506185942 | 16 | 230 | 3.2 | 4.8 | 0.00 | 1.50 | 1.50 | 61 | 1012.2 |
| 20260506185439 | 16 | 345 | 11.3 | 12.9 | 0.00 | 1.50 | 1.50 | 60 | 1011.9 |
| 20260506184936 | 16 | 323 | 3.2 | 3.2 | 0.00 | 1.50 | 1.50 | 61 | 1012.1 |
| 20260506184433 | 17 | 250 | 6.4 | 9.7 | 0.00 | 1.50 | 1.50 | 57 | 1012.0 |
| 20260506183930 | 16 | 305 | 9.7 | 14.5 | 0.00 | 1.50 | 1.50 | 57 | 1012.0 |
| 20260506183425 | 17 | 249 | 3.2 | 4.8 | 0.00 | 1.50 | 1.50 | 62 | 1012.0 |
| 20260506182923 | 17 | 4 | 6.4 | 9.7 | 0.00 | 1.50 | 1.50 | 60 | 1011.9 |
| 20260506182420 | 15 | 215 | 0.0 | 1.6 | 0.00 | 1.50 | 1.50 | 62 | 1012.1 |
| 20260506181918 | 15 | 268 | 3.2 | 4.8 | 0.00 | 1.50 | 1.50 | 63 | 1012.2 |
| 20260506181415 | 15 | 236 | 4.8 | 4.8 | 0.00 | 1.50 | 1.50 | 63 | 1012.2 |
| 20260506180912 | 15 | 277 | 3.2 | 4.8 | 0.00 | 1.50 | 1.50 | 63 | 1012.3 |
| 20260506180408 | 15 | 286 | 3.2 | 3.2 | 0.00 | 1.50 | 1.50 | 65 | 1012.3 |
| 20260506175905 | 16 | 187 | 4.8 | 4.8 | 0.00 | 1.50 | 1.50 | 62 | 1012.1 |
| 20260506175401 | 16 | 221 | 1.6 | 1.6 | 0.00 | 1.50 | 1.50 | 66 | 1012.2 |
| 20260506174858 | 15 | 38 | 11.3 | 16.1 | 0.00 | 1.50 | 1.50 | 64 | 1012.2 |
| 20260506174356 | 15 | 211 | 0.0 | 1.6 | 0.00 | 1.50 | 1.50 | 71 | 1012.1 |
| 20260506173853 | 15 | 272 | 6.4 | 9.7 | 0.00 | 1.50 | 1.50 | 68 | 1012.1 |
| 20260506173350 | 15 | 80 | 4.8 | 4.8 | 0.00 | 1.50 | 1.50 | 72 | 1012.5 |
| 20260506172847 | 15 | 340 | 8.0 | 11.3 | 0.00 | 1.50 | 1.50 | 73 | 1012.5 |
| 20260506172344 | 15 | 221 | 3.2 | 3.2 | 0.00 | 1.50 | 1.50 | 74 | 1012.5 |
| 20260506171841 | 15 | 254 | 3.2 | 3.2 | 0.00 | 1.50 | 1.50 | 72 | 1012.6 |
| 20260506171338 | 15 | 216 | 3.2 | 3.2 | 0.00 | 1.50 | 1.50 | 70 | 1012.5 |
| 20260506170836 | 15 | 188 | 1.6 | 3.2 | 0.00 | 1.50 | 1.50 | 73 | 1012.5 |
| 20260506170331 | 15 | 42 | 6.4 | 9.7 | 0.00 | 1.50 | 1.50 | 71 | 1012.5 |
| 20260506165826 | 14 | 233 | 1.6 | 3.2 | 0.00 | 1.50 | 1.50 | 73 | 1012.5 |
| 20260506165323 | 13 | 203 | 3.2 | 3.2 | 0.00 | 1.50 | 1.50 | 75 | 1012.4 |
| 20260506164819 | 14 | 343 | 8.0 | 9.7 | 0.00 | 1.50 | 1.50 | 77 | 1012.3 |
| 20260506164315 | 14 | 206 | 1.6 | 1.6 | 0.00 | 1.50 | 1.50 | 78 | 1012.1 |
| 20260506163813 | 13 | 224 | 1.6 | 1.6 | 0.00 | 1.50 | 1.50 | 76 | 1012.1 |
| 20260506163307 | 13 | 217 | 1.6 | 1.6 | 0.00 | 1.50 | 1.50 | 77 | 1012.1 |
| 20260506162803 | 14 | 332 | 8.0 | 9.7 | 0.00 | 1.50 | 1.50 | 77 | 1012.2 |
| 20260506162301 | 14 | 217 | 0.0 | 1.6 | 0.00 | 1.50 | 1.50 | 73 | 1012.5 |
| 20260506161758 | 13 | 247 | 4.8 | 6.4 | 0.00 | 1.50 | 1.50 | 78 | 1012.6 |
| 20260506161256 | 13 | 226 | 1.6 | 1.6 | 0.00 | 1.50 | 1.50 | 79 | 1012.5 |
| 20260506160753 | 13 | 245 | 3.2 | 4.8 | 0.00 | 1.50 | 1.50 | 81 | 1012.7 |
| 20260506160250 | 12 | 262 | 8.0 | 9.7 | 0.00 | 1.50 | 1.50 | 80 | 1012.4 |
| 20260506155749 | 12 | 331 | 4.8 | 6.4 | 0.00 | 1.50 | 1.50 | 81 | 1012.4 |
| 20260506155245 | 12 | 230 | 0.0 | 0.0 | 0.00 | 1.50 | 1.50 | 82 | 1012.5 |
| 20260506153352 | 12 | 323 | 4.8 | 4.8 | 0.00 | 1.50 | 1.50 | 85 | 1012.3 |
| 20260506152849 | 12 | 246 | 1.6 | 1.6 | 0.00 | 1.50 | 1.50 | 85 | 1012.0 |
| 20260506152346 | 11 | 257 | 3.2 | 3.2 | 0.00 | 1.50 | 1.50 | 84 | 1011.9 |
| 20260506151845 | 11 | 227 | 1.6 | 1.6 | 0.00 | 1.50 | 1.50 | 85 | 1011.8 |
| 20260506151341 | 11 | 241 | 3.2 | 4.8 | 0.00 | 1.50 | 1.50 | 87 | 1011.9 |
| 20260506150838 | 11 | 205 | 1.6 | 3.2 | 0.00 | 1.50 | 1.50 | 89 | 1011.8 |
| 20260506150335 | 10 | 234 | 3.2 | 3.2 | 0.00 | 1.50 | 1.50 | 90 | 1011.9 |
| 20260506145832 | 10 | 225 | 4.8 | 6.4 | 0.00 | 1.50 | 1.50 | 91 | 1011.9 |
| 20260506145328 | 10 | 273 | 3.2 | 3.2 | 0.00 | 1.50 | 1.50 | 92 | 1011.8 |
| 20260506144826 | 10 | 5 | 6.4 | 6.4 | 0.00 | 1.50 | 1.50 | 92 | 1011.6 |
| 20260506144322 | 10 | 210 | 3.2 | 4.8 | 0.00 | 1.50 | 1.50 | 93 | 1011.9 |
| 20260506143821 | 10 | 194 | 6.4 | 9.7 | 0.00 | 1.50 | 1.50 | 92 | 1011.7 |
| 20260506143317 | 10 | 230 | 3.2 | 3.2 | 0.00 | 1.50 | 1.50 | 93 | 1011.4 |
| 20260506142815 | 10 | 262 | 6.4 | 9.7 | 0.00 | 1.50 | 1.50 | 93 | 1011.1 |
| 20260506142313 | 10 | 267 | 4.8 | 4.8 | 0.00 | 1.50 | 1.50 | 93 | 1011.1 |
| 20260506141811 | 10 | 9 | 4.8 | 4.8 | 0.00 | 1.50 | 1.50 | 94 | 1011.2 |
| 20260506141309 | 10 | 0 | 6.4 | 6.4 | 0.00 | 1.50 | 1.50 | 93 | 1011.3 |
| 20260506140807 | 10 | 235 | 3.2 | 4.8 | 0.00 | 1.50 | 1.50 | 94 | 1011.2 |
| 20260506140303 | 10 | 249 | 3.2 | 3.2 | 0.00 | 1.50 | 1.50 | 94 | 1011.2 |
| 20260506135800 | 10 | 220 | 1.6 | 1.6 | 0.00 | 1.50 | 1.50 | 95 | 1011.0 |
| 20260506135256 | 10 | 222 | 1.6 | 1.6 | 0.00 | 1.50 | 1.50 | 95 | 1011.0 |
| 20260506134753 | 10 | 245 | 4.8 | 6.4 | 0.00 | 1.50 | 1.50 | 95 | 1010.8 |
| 20260506134249 | 9 | 230 | 3.2 | 3.2 | 0.00 | 1.50 | 1.50 | 95 | 1010.8 |
| 20260506133747 | 10 | 253 | 6.4 | 11.3 | 0.00 | 1.50 | 1.50 | 95 | 1010.7 |
| 20260506133243 | 9 | 324 | 9.7 | 12.9 | 0.00 | 1.50 | 1.50 | 96 | 1010.5 |
| 20260506132740 | 9 | 272 | 4.8 | 6.4 | 0.00 | 1.50 | 1.50 | 96 | 1010.3 |
| 20260506132238 | 9 | 226 | 1.6 | 3.2 | 0.00 | 1.50 | 1.50 | 97 | 1010.5 |
| 20260506131736 | 9 | 339 | 6.4 | 6.4 | 0.13 | 1.50 | 1.50 | 97 | 1010.4 |
| 20260506131231 | 9 | 241 | 3.2 | 4.8 | 0.13 | 1.50 | 1.50 | 97 | 1010.5 |
| 20260506130728 | 9 | 218 | 1.6 | 3.2 | 0.00 | 1.47 | 1.47 | 97 | 1010.4 |
| 20260506130225 | 9 | 249 | 3.2 | 4.8 | 0.18 | 1.47 | 1.47 | 97 | 1010.2 |
| 20260506125723 | 10 | 6 | 4.8 | 4.8 | 0.18 | 1.47 | 1.47 | 97 | 1010.2 |
| 20260506125221 | 10 | 352 | 6.4 | 9.7 | 0.00 | 1.45 | 1.45 | 97 | 1010.4 |
| 20260506124719 | 10 | 2 | 12.9 | 14.5 | 0.00 | 1.45 | 1.45 | 97 | 1010.0 |
| 20260506124216 | 10 | 222 | 1.6 | 3.2 | 0.13 | 1.45 | 1.45 | 97 | 1010.0 |
| 20260506123713 | 10 | 56 | 4.8 | 6.4 | 0.13 | 1.45 | 1.45 | 97 | 1009.8 |
| 20260506123212 | 10 | 328 | 3.2 | 4.8 | 0.13 | 1.45 | 1.45 | 97 | 1009.3 |
| 20260506122709 | 10 | 188 | 3.2 | 3.2 | 0.00 | 1.42 | 1.42 | 98 | 1009.1 |
| 20260506122206 | 10 | 227 | 1.6 | 1.6 | 0.00 | 1.42 | 1.42 | 98 | 1008.8 |
| 20260506121704 | 11 | 243 | 4.8 | 6.4 | 0.00 | 1.42 | 1.42 | 98 | 1008.7 |
| 20260506121200 | 11 | 270 | 3.2 | 3.2 | 0.00 | 1.42 | 1.42 | 98 | 1008.5 |
| 20260506120658 | 11 | 217 | 1.6 | 3.2 | 0.00 | 1.42 | 1.42 | 98 | 1008.5 |
| 20260506120155 | 11 | 255 | 1.6 | 3.2 | 0.00 | 1.42 | 1.42 | 98 | 1008.4 |
| 20260506115654 | 12 | 296 | 4.8 | 4.8 | 0.00 | 1.42 | 1.42 | 98 | 1008.2 |
| 20260506115151 | 12 | 251 | 4.8 | 6.4 | 0.00 | 1.42 | 1.42 | 98 | 1008.4 |
| 20260506114648 | 12 | 211 | 0.0 | 1.6 | 0.00 | 1.42 | 1.42 | 98 | 1008.2 |
| 20260506114146 | 12 | 207 | 0.0 | 1.6 | 0.00 | 1.42 | 1.42 | 99 | 1008.1 |
| 20260506113645 | 12 | 266 | 3.2 | 4.8 | 0.00 | 1.42 | 1.42 | 99 | 1007.7 |
| 20260506113141 | 12 | 273 | 3.2 | 3.2 | 0.00 | 1.42 | 1.42 | 99 | 1007.9 |
| 20260506112637 | 12 | 221 | 0.0 | 0.0 | 0.18 | 1.42 | 1.42 | 99 | 1007.8 |
| 20260506112135 | 12 | 223 | 1.6 | 1.6 | 0.18 | 1.42 | 1.42 | 99 | 1007.6 |
| 20260506111633 | 12 | 233 | 1.6 | 1.6 | 0.00 | 1.40 | 1.40 | 99 | 1007.7 |
| 20260506111130 | 13 | 255 | 6.4 | 6.4 | 0.13 | 1.40 | 1.40 | 99 | 1007.6 |
| 20260506110627 | 13 | 277 | 4.8 | 4.8 | 0.13 | 1.40 | 1.40 | 99 | 1007.7 |
| 20260506110125 | 13 | 218 | 3.2 | 3.2 | 0.00 | 1.37 | 1.37 | 99 | 1007.7 |
| 20260506105621 | 13 | 204 | 0.0 | 0.0 | 0.18 | 1.37 | 1.37 | 99 | 1007.3 |
| 20260506105118 | 13 | 209 | 0.0 | 0.0 | 0.18 | 1.37 | 1.37 | 99 | 1007.1 |
| 20260506104616 | 13 | 224 | 1.6 | 1.6 | 0.00 | 1.35 | 1.35 | 99 | 1007.0 |
| 20260506104114 | 13 | 207 | 1.6 | 3.2 | 0.00 | 1.35 | 1.35 | 99 | 1007.2 |
| 20260506103611 | 13 | 207 | 1.6 | 1.6 | 0.00 | 1.35 | 1.35 | 99 | 1007.1 |
| 20260506103108 | 13 | 207 | 1.6 | 1.6 | 0.00 | 1.35 | 1.35 | 99 | 1006.7 |
| 20260506102606 | 13 | 207 | 0.0 | 0.0 | 0.00 | 1.35 | 1.35 | 99 | 1006.8 |
| 20260506102103 | 13 | 208 | 0.0 | 0.0 | 0.00 | 1.35 | 1.35 | 99 | 1006.7 |
| 20260506101600 | 13 | 207 | 0.0 | 0.0 | 0.00 | 1.35 | 1.35 | 99 | 1006.6 |
| 20260506101056 | 13 | 208 | 0.0 | 0.0 | 0.00 | 1.35 | 1.35 | 99 | 1006.6 |
| 20260506100555 | 13 | 207 | 0.0 | 0.0 | 0.00 | 1.35 | 1.35 | 99 | 1006.8 |
| 20260506100053 | 13 | 207 | 0.0 | 0.0 | 0.00 | 1.35 | 1.35 | 99 | 1006.8 |
| 20260506095551 | 13 | 208 | 0.0 | 0.0 | 0.00 | 1.35 | 1.35 | 99 | 1006.8 |
| 20260506095047 | 13 | 207 | 0.0 | 0.0 | 0.00 | 1.35 | 1.35 | 99 | 1006.6 |
| 20260506094545 | 13 | 207 | 0.0 | 0.0 | 0.00 | 1.35 | 1.35 | 99 | 1006.7 |
| 20260506094043 | 13 | 207 | 0.0 | 0.0 | 0.00 | 1.35 | 1.35 | 99 | 1006.5 |
| 20260506093541 | 13 | 207 | 0.0 | 0.0 | 0.00 | 1.35 | 1.35 | 99 | 1006.7 |
| 20260506093038 | 13 | 207 | 0.0 | 0.0 | 0.00 | 1.35 | 1.35 | 99 | 1006.8 |
| 20260506092536 | 13 | 207 | 0.0 | 0.0 | 0.00 | 1.35 | 1.35 | 99 | 1006.9 |
| 20260506092032 | 13 | 207 | 0.0 | 0.0 | 0.00 | 1.35 | 1.35 | 99 | 1006.9 |
| 20260506091531 | 13 | 207 | 0.0 | 0.0 | 0.00 | 1.35 | 1.35 | 99 | 1007.0 |
| 20260506091027 | 13 | 207 | 0.0 | 1.6 | 0.18 | 1.35 | 1.35 | 99 | 1006.8 |
| 20260506090525 | 13 | 208 | 0.0 | 0.0 | 0.30 | 1.35 | 1.35 | 99 | 1007.0 |
| 20260506090021 | 13 | 215 | 0.0 | 0.0 | 0.30 | 1.32 | 1.32 | 99 | 1007.1 |
| 20260506085518 | 13 | 215 | 0.0 | 0.0 | 0.48 | 1.30 | 1.30 | 99 | 1007.0 |
| 20260506085015 | 13 | 215 | 0.0 | 0.0 | 0.43 | 1.27 | 1.27 | 99 | 1007.0 |
| 20260506084512 | 13 | 201 | 0.0 | 0.0 | 0.48 | 1.24 | 1.24 | 99 | 1007.1 |
| 20260506084008 | 13 | 200 | 1.6 | 1.6 | 0.48 | 1.19 | 1.19 | 99 | 1007.0 |
| 20260506083505 | 13 | 200 | 0.0 | 0.0 | 0.43 | 1.17 | 1.17 | 99 | 1007.0 |
| 20260506083002 | 13 | 200 | 0.0 | 1.6 | 0.30 | 1.12 | 1.12 | 99 | 1006.9 |
| 20260506082459 | 13 | 202 | 0.0 | 1.6 | 0.48 | 1.09 | 1.09 | 99 | 1006.8 |
| 20260506081955 | 13 | 201 | 0.0 | 0.0 | 0.61 | 1.07 | 1.07 | 99 | 1006.9 |
| 20260506081453 | 13 | 200 | 1.6 | 1.6 | 0.61 | 1.02 | 1.02 | 99 | 1007.0 |
| 20260506080951 | 13 | 203 | 0.0 | 1.6 | 0.79 | 0.97 | 0.97 | 99 | 1006.9 |
| 20260506080447 | 13 | 196 | 1.6 | 1.6 | 0.79 | 0.91 | 0.91 | 99 | 1006.9 |
| 20260506073431 | 14 | 205 | 0.0 | 1.6 | 0.48 | 0.74 | 0.74 | 99 | 1007.0 |
| 20260506072928 | 14 | 205 | 1.6 | 1.6 | 0.30 | 0.69 | 0.69 | 99 | 1007.3 |
| 20260506072425 | 14 | 205 | 0.0 | 0.0 | 0.30 | 0.66 | 0.66 | 99 | 1007.2 |
| 20260506071923 | 14 | 205 | 1.6 | 1.6 | 0.48 | 0.64 | 0.64 | 99 | 1007.2 |
| 20260506071421 | 14 | 206 | 0.0 | 1.6 | 0.43 | 0.61 | 0.61 | 99 | 1007.3 |
| 20260506070918 | 14 | 206 | 0.0 | 0.0 | 0.48 | 0.58 | 0.58 | 99 | 1007.1 |
| 20260506070415 | 14 | 206 | 0.0 | 0.0 | 0.61 | 0.53 | 0.53 | 99 | 1007.2 |
| 20260506062352 | 14 | 221 | 0.0 | 0.0 | 0.18 | 0.20 | 0.20 | 99 | 1007.5 |
| 20260506061848 | 14 | 221 | 0.0 | 0.0 | 0.00 | 0.18 | 0.18 | 99 | 1007.5 |
| 20260506061344 | 14 | 221 | 1.6 | 1.6 | 0.00 | 0.18 | 0.18 | 99 | 1007.1 |
| 20260506060843 | 14 | 219 | 0.0 | 0.0 | 0.00 | 0.18 | 0.18 | 99 | 1006.9 |
| 20260506060340 | 14 | 219 | 0.0 | 0.0 | 0.00 | 0.18 | 0.18 | 99 | 1007.0 |
| 20260506051312 | 14 | 222 | 0.0 | 0.0 | 0.00 | 0.10 | 0.10 | 98 | 1007.7 |
| 20260506050810 | 14 | 222 | 0.0 | 0.0 | 0.18 | 0.10 | 0.10 | 98 | 1007.8 |
| 20260506050307 | 14 | 223 | 0.0 | 0.0 | 0.18 | 0.10 | 0.10 | 98 | 1008.0 |
| 20260506044758 | 15 | 206 | 3.2 | 3.2 | 0.00 | 0.08 | 0.08 | 98 | 1007.8 |
| 20260506044255 | 15 | 225 | 0.0 | 0.0 | 0.00 | 0.08 | 0.08 | 98 | 1008.2 |
| 20260506043752 | 15 | 225 | 0.0 | 0.0 | 0.00 | 0.08 | 0.08 | 98 | 1008.2 |
| 20260506043249 | 15 | 225 | 0.0 | 0.0 | 0.00 | 0.08 | 0.08 | 98 | 1008.4 |
| 20260506042748 | 15 | 225 | 0.0 | 0.0 | 0.18 | 0.08 | 0.08 | 98 | 1008.4 |
| 20260506042247 | 15 | 224 | 0.0 | 0.0 | 0.30 | 0.08 | 0.08 | 98 | 1008.6 |
| 20260506041745 | 15 | 225 | 0.0 | 0.0 | 0.30 | 0.05 | 0.05 | 98 | 1009.2 |
| 20260506041241 | 15 | 225 | 0.0 | 0.0 | 0.18 | 0.03 | 0.03 | 98 | 1009.1 |
| 20260506040739 | 15 | 225 | 0.0 | 0.0 | 0.13 | 0.00 | 0.00 | 97 | 1009.0 |
| 20260506040236 | 15 | 225 | 0.0 | 0.0 | 0.13 | 0.00 | 0.00 | 97 | 1009.2 |
| 20260506035732 | 15 | 225 | 0.0 | 0.0 | 0.00 | 0.08 | 0.08 | 97 | 1009.0 |
| 20260506035230 | 15 | 225 | 0.0 | 0.0 | 0.18 | 0.08 | 0.08 | 97 | 1009.0 |
| 20260506034726 | 15 | 225 | 0.0 | 0.0 | 0.18 | 0.08 | 0.08 | 97 | 1009.1 |
| 20260506034223 | 15 | 225 | 0.0 | 0.0 | 0.18 | 0.08 | 0.08 | 97 | 1008.7 |
| 20260506033721 | 15 | 225 | 0.0 | 0.0 | 0.00 | 0.05 | 0.05 | 97 | 1008.6 |
| 20260506033218 | 15 | 225 | 0.0 | 0.0 | 0.00 | 0.05 | 0.05 | 97 | 1008.5 |
| 20260506032715 | 15 | 225 | 0.0 | 0.0 | 0.00 | 0.05 | 0.05 | 97 | 1008.5 |
| 20260506032212 | 15 | 225 | 0.0 | 0.0 | 0.00 | 0.05 | 0.05 | 97 | 1008.5 |
| 20260506031708 | 15 | 225 | 0.0 | 0.0 | 0.00 | 0.05 | 0.05 | 97 | 1008.5 |
| 20260506031206 | 15 | 225 | 0.0 | 0.0 | 0.00 | 0.05 | 0.05 | 97 | 1008.6 |
| 20260506030704 | 15 | 225 | 0.0 | 0.0 | 0.00 | 0.05 | 0.05 | 97 | 1008.7 |
| 20260506030201 | 15 | 225 | 0.0 | 0.0 | 0.00 | 0.05 | 0.05 | 97 | 1008.4 |
| 20260506025657 | 15 | 225 | 0.0 | 0.0 | 0.00 | 0.05 | 0.05 | 97 | 1008.5 |
| 20260506025154 | 15 | 225 | 0.0 | 0.0 | 0.00 | 0.05 | 0.05 | 96 | 1008.3 |
| 20260506024651 | 15 | 225 | 0.0 | 0.0 | 0.00 | 0.05 | 0.05 | 96 | 1008.7 |
| 20260506024148 | 15 | 225 | 0.0 | 0.0 | 0.00 | 0.05 | 0.05 | 96 | 1008.6 |